Regional Weather Roundup
Issued by NWS

Home | Current Version | Previous Version | Graphics & Text | Print | Product List | Glossary On
Versions: 1 2 3 4 5 6 7 8 9 10 11 12 13 14 15 16 17 18 19 20 21 22 23 24 25 26 27 28 29 30 31 32 33 34 35 36 37 38 39 40 41 42 43 44 45 46 47 48 49 50
000
ASUS43 KFSD 010002
RWRSD

WEATHER ROUNDUP FOR SOUTH DAKOTA
NATIONAL WEATHER SERVICE SIOUX FALLS SD
600 PM CST SAT FEB 28 2015

NOTE: "FAIR" INDICATES FEW OR NO CLOUDS BELOW 12,000 FEET WITH NO
SIGNIFICANT WEATHER AND/OR OBSTRUCTIONS TO VISIBILITY.


SDZ001>005-009-010-012>017-010100-
NORTHWEST AND NORTH CENTRAL SOUTH DAKOTA

CITY           SKY/WX    TMP DP  RH WIND       PRES   REMARKS
BUFFALO          N/A     19   7  59 W15       30.05R WCI   5
FAITH            N/A     19   4  51 NW12      30.14R WCI   7
MOBRIDGE       CLEAR     21   8  57 N13       30.14R WCI   9
$$

SDZ012>016-024>037-041>051-057-063-072>074-010100-
SOUTHWEST AND SOUTH CENTRAL SOUTH DAKOTA

CITY           SKY/WX    TMP DP  RH WIND       PRES   REMARKS
RAPID CTY ARPT CLEAR     21  10  62 N13       30.10S WCI   9
PIERRE         CLEAR     27   8  44 N12       30.15R WCI  17
CUSTER         CLOUDY    17   9  70 E9        29.93S WCI   6
ELLSWORTH AFB  MOCLDY    22   9  58 N14       30.09R WCI   9
PHILIP         CLEAR     26   3  37 N14       30.15R WCI  14
PINE RIDGE     CLEAR     30   5  34 NE3       30.06S
WINNER         FAIR      31   1  28 NW15      30.14R WCI  20
$$

SDZ004>011-016>023-039-040-010100-
NORTHEAST SOUTH DAKOTA

CITY           SKY/WX    TMP DP  RH WIND       PRES   REMARKS
ABERDEEN       CLOUDY    26  16  65 W8        30.15R WCI  18
WATERTOWN      MOCLDY    23  12  62 S8        30.13S WCI  14
SISSETON         N/A     26  15  63 S10       30.15S WCI  16
$$

SDZ017-020-022-023-036>040-048>070-010100-
SOUTHEAST SOUTH DAKOTA

CITY           SKY/WX    TMP DP  RH WIND       PRES   REMARKS
SIOUX FALLS    PTCLDY    26  13  57 S13       30.21R WCI  15
HURON          CLOUDY    29  19  66 NW14      30.14R WCI  18
MITCHELL       PTCLDY    32  11  41 S8        30.16F WCI  25
YANKTON        CLEAR     30   9  40 S12       30.23R WCI  21
$$

ABBREVIATIONS USED IN REMARKS
   TC - TEMPERATURE IN CELSIUS
  WCI - WIND CHILL INDEX
   HX - HEAT INDEX
  VSB - VISIBILITY



USA.gov is the U.S. government's official web portal to all federal, state and local government web resources and services.